OpenBCM V1.13 (Linux)

Packet Radio Mailbox

DB0FHN

[JN59NK Nuernberg]

 Login: GUEST





  
LU9DCE > KEP      22.03.19 19:34l 255 Lines 12555 Bytes #999 (0) @ WW
BID : 20395_LU9DCE
Read: DF7EAV DK7NR DK3UZ GUEST
Subj: TLE 22 03
Path: DB0FHN<DB0BLO<DB0ERF<DB0RES<IR2UBX<IW2OHX<UA6ADV<LU4ECL<JE7YGF<JH4XSY<
      N3HYM<LU9DCE
Sent: 190322/1801Z @:LU9DCE.TOR.BA.ARG.SOAM #:20395 LinBPQ6.0.18

            __    _  _  ___  ____   ___  ____    ____  ____  ____
           (  )  / )( \/ _ \(    \ / __)(  __)  (  _ \(  _ \/ ___)
           / (_/\) \/ (\__  )) D (( (__  ) _)    ) _ ( ) _ (\___ \
           \____/\____/(___/(____/ \___)(____)  (____/(____/(____/
               ESTACION DE PACKET RADIO - BUENOS AIRES (GF05OM)
                   BOLETINES INFORMATIVOS PROGRAMADOS (BIP)
                  SOPORTE TECNICO - HELLOCODELINUX@GMAIL.COM

+----------------------------------------------------------------------------+
OSCAR 7
1  7530U 74089B   19080.88464321 -.00000049  00000-0 -28054-4 0  9995
2  7530 101.7336  49.4942 0012217 156.9470 258.7185 12.53637254 29392
OSCAR 11 (UoSAT 2)
1 14781U 84021B   19080.91133933 +.00000066 +00000-0 +14214-4 0  9994
2 14781 097.6204 109.7850 0007087 247.0144 113.0323 14.83070739864604
OSCAR 19 (LUSAT)
1 20442U 90005G   19081.40746204  .00000002  00000-0  16859-4 0  9997
2 20442  98.6406  23.5957 0012722  53.0731 307.1616 14.32919967523736
EYESAT A
1 22825U 93061C   19081.55158769 -.00000024  00000-0  87296-5 0  9997
2 22825  98.8977  68.2046 0007343 253.9590 106.0782 14.30053731329358
ITAMSAT
1 22826U 93061D   19081.22402148 -.00000017  00000-0  11480-4 0  9998
2 22826  98.8917  67.8725 0007922 242.8206 117.2168 14.30386836329500
RADIO ROSTO
1 23439U 94085A   19080.95203413 -.00000060 +00000-0 -49630-3 0  9995
2 23439 064.8140 259.6289 0148290 130.2450 024.2704 11.27568326997887
JAS 2
1 24278U 96046B   19081.03975400 -.00000025  00000-0  71309-5 0  9998
2 24278  98.5235 246.5349 0351353 109.9190 254.0159 13.53089911115811
TECHSAT 1B
1 25397U 98043D   19080.85455595 -.00000017 +00000-0 +11563-4 0  9993
2 25397 098.6811 022.1141 0000584 357.8917 002.2259 14.23662015075012
ISS (ZARYA)
1 25544U 98067A   19081.46993884  .00001958  00000-0  38456-4 0  9993
2 25544  51.6407  72.3221 0003828 123.5852  13.8449 15.52839527161788
PCSAT
1 26931U 01043C   19081.54825426 -.00000041  00000-0  15932-4 0  9994
2 26931  67.0503 231.1298 0005476 275.3762  84.6715 14.30535756912365
SAUDISAT 1C
1 27607U 02058C   19080.89657685 -.00000012 +00000-0 +19254-4 0  9998
2 27607 064.5554 321.0735 0082353 273.4392 085.7293 14.75528566873804
CUTE-1
1 27844U 03031E   19080.93573777 +.00000040 +00000-0 +37725-4 0  9990
2 27844 098.6869 090.4656 0008716 290.3918 069.6323 14.22165813815632
CUBESAT XI 4
1 27848U 03031J   19081.53603703  .00000022  00000-0  29856-4 0  9990
2 27848  98.6948  91.5367 0008671 300.8827  59.1497 14.21762650815616
MOZHAYETS 4
1 27939U 03042A   19081.56971163  .00000051  00000-0  17795-4 0  9995
2 27939  98.0240 219.1788 0012416 353.5336   6.5717 14.66761853827621
CUBESAT XI 5
1 28895U 05043F   19080.90980426  .00000110  00000-0  30070-4 0  9996
2 28895  97.9438 226.7575 0015434 271.7881  88.1554 14.63640131714494
CUTE-1.7+APD II
1 32785U 08021C   19080.80364375 +.00000178 +00000-0 +24871-4 0  9992
2 32785 097.5494 084.7164 0012695 191.0873 169.0066 14.88265766590394
DELFI C3
1 32789U 08021G   19080.83370048 +.00001378 +00000-0 +96646-4 0  9995
2 32789 097.4755 133.1405 0013723 073.0226 287.2505 15.06730363593483
SEEDS
1 32791U 08021J   19080.70261010 +.00000388 +00000-0 +44792-4 0  9997
2 32791 097.5303 090.4900 0013669 167.8834 192.2716 14.90756250590859
YUBELEINY
1 32953U 08025A   19081.51456742  .00000020  00000-0  75656-4 0  9995
2 32953  82.5065 199.5851 0018081 324.0665  35.9195 12.43088218491353
PRISM (HITOMI)
1 33493U 09002B   19080.73983259  .00000086  00000-0  13176-4 0  9993
2 33493  98.1232 358.3268 0016302 114.4841 245.8082 14.96550070551848
KKS-1 (KISEKI)
1 33499U 09002H   19080.90165149 +.00000070 +00000-0 +18415-4 0  9992
2 33499 098.3549 276.7457 0010232 124.9329 235.2841 14.75415591545702
SWISSCUBE
1 35932U 09051B   19081.44358695  .00000123  00000-0  38819-4 0  9999
2 35932  98.5768 244.8806 0008757  79.4634 280.7549 14.56254960503936
BEESAT
1 35933U 09051C   19080.97113369  .00000083  00000-0  29660-4 0  9993
2 35933  98.5801 246.1081 0007045  92.3393 267.8610 14.56347607503970
ITUPSAT 1
1 35935U 09051E   19080.97778417  .00000055  00000-0  23788-4 0  9990
2 35935  98.5913 246.3585 0009343  89.1139 271.1128 14.55511592503733
XIWANG-1 (HOPE-1)
1 36122U 09072B   19081.19025345 -.00000011  00000-0  82653-4 0  9991
2 36122 100.0744  87.7330 0007431 183.8856 176.2220 13.16349182445230
TISAT 1
1 36799U 10035E   19080.96685082  .00000424  00000-0  48938-4 0  9991
2 36799  98.1416 230.2478 0012598  23.4044 336.7744 14.91030945471544
JUGNU
1 37839U 11058B   19080.60993719 +.00000345 +00000-0 +41938-4 0  9998
2 37839 019.9600 154.9744 0019050 065.2464 085.1709 14.12644993384539
SRMSAT
1 37841U 11058D   19081.43089852  .00000296  00000-0  17729-4 0  9993
2 37841  19.9709 204.9468 0011846 307.4231 101.8187 14.10626880384213
M-CUBED/EXP-1 PRIME
1 37855U 11061F   19080.79845424  .00000927  00000-0  54603-4 0  9998
2 37855 101.7269 290.7140 0174268 340.2672  19.1852 15.05205793403405
HORYU 2
1 38340U 12025D   19081.08992667  .00000161  00000-0  31523-4 0  9990
2 38340  98.3402 116.9718 0012436  51.4164 308.8156 14.75681316368095
STRAND 1
1 39090U 13009E   19081.02930354  .00000026  00000-0  24185-4 0  9991
2 39090  98.4974 288.4270 0008959 185.3129 174.7963 14.35074681317675
SOMP
1 39134U 13015E   19080.93502944 +.00001100 +00000-0 +60124-4 0  9993
2 39134 064.8633 307.9407 0022361 316.2230 043.7123 15.19913346326725
BEESAT 3
1 39135U 13015F   19080.89851312 +.00000643 +00000-0 +41968-4 0  9991
2 39135 064.8689 325.1352 0009989 299.1766 060.8360 15.17270621326387
BEESAT 2
1 39136U 13015G   19080.90270758 +.00000674 +00000-0 +44125-4 0  9995
2 39136 064.8707 328.6724 0011497 295.9237 064.0703 15.16714783326315
CUBEBUG 1
1 39153U 13018D   19081.49899230  .00000200  00000-0  32972-4 0  9996
2 39153  97.9743 180.1488 0018232 122.3552 237.9428 14.80528090318776
ZACUBE
1 39417U 13066B   19080.93209430 +.00000177 +00000-0 +28801-4 0  9996
2 39417 097.5684 099.3966 0058042 326.2727 033.4798 14.81071462287909
TRITON 1
1 39427U 13066M   19081.17600210  .00000207  00000-0  40658-4 0  9993
2 39427  97.6682  64.0678 0115447  88.9112 272.5318 14.67794554285350
GOMX 1
1 39430U 13066Q   19081.44128025  .00000137  00000-0  33707-4 0  9995
2 39430  97.7350  43.8630 0151360 171.9618 188.4051 14.59208940283737
HUMSAT D
1 39433U 13066T   19080.82763355 +.00000504 +00000-0 +54616-4 0  9990
2 39433 097.5657 131.9122 0029626 235.3425 124.5001 14.92109586288647
CUBEBUG 2
1 39440U 13066AA  19081.00110743  .00000222  00000-0  37801-4 0  9990
2 39440  97.6017  84.6801 0080684  14.2258 346.1198 14.75809548286893
FUNCUBE 1
1 39444U 13066AE  19080.57623118  .00000248  00000-0  37041-4 0  9994
2 39444  97.5672 100.9156 0057056 321.6486  38.0677 14.81880603286733
UWE-3
1 39446U 13066AG  19080.95402459 +.00000207 +00000-0 +34154-4 0  9998
2 39446 097.5838 091.5406 0069774 350.9285 009.0660 14.78344489285567
SPROUT
1 39770U 14029E   19081.29547551  .00000680  00000-0  81556-4 0  9992
2 39770  97.8792 185.2115 0009485  26.0125 334.1566 14.87220778261693
UNISAT 6
1 40012U 14033C   19080.88111804  .00000154  00000-0  30316-4 0  9994
2 40012  97.7712 311.2473 0059078  25.6394 334.7723 14.73939572255608
DUCHIFAT 1
1 40021U 14033M   19080.73271131  .00000510  00000-0  58049-4 0  9997
2 40021  97.9225   5.0474 0012760 350.3465   9.7506 14.90551218258294
QB50P1
1 40025U 14033R   19080.72178961  .00000309  00000-0  38984-4 0  9999
2 40025  97.9066   0.5510 0012454 359.2256   0.8940 14.88886290258087
CHUBUSAT 1
1 40300U 14070C   19081.56770771  .00000744  00000-0  35474-4 0  9990
2 40300  97.3343 157.9543 0020567   9.3420 105.9572 15.21958735242610
NUDT-PHONESAT
1 40900U 15049B   19081.45038037  .00002182  00000-0  97256-4 0  9997
2 40900  97.4399  91.6649 0014478 128.9011 335.8477 15.22402343194239
ZDPS 2A
1 40901U 15049C   19081.46954850  .00000979  00000-0  51988-4 0  9993
2 40901  97.4611  88.5751 0014658 143.0811  13.4762 15.17561826193851
ZDPS 2B
1 40902U 15049D   19081.48180435  .00001004  00000-0  53588-4 0  9994
2 40902  97.4539  86.2027 0014788 141.1685  11.0847 15.17335837193831
XW-2A
1 40903U 15049E   19081.44432715  .00001933  00000-0  48003-4 0  9999
2 40903  97.3502 123.6689 0015738 103.3904  10.0520 15.41492236196655
KAITUO 1A
1 40904U 15049F   19081.45459755  .00000312  00000-0  20031-4 0  9995
2 40904  97.4662  84.9832 0015436 147.4980 357.6275 15.15275027193631
OBJECT G
1 40905U 15049G   19081.47397921  .00000741  00000-0  44036-4 0  9991
2 40905  97.4687  82.6650 0016613 142.2365   9.7259 15.14212427193529
XW-2C
1 40906U 15049H   19081.40018936  .00000907  00000-0  51214-4 0  9991
2 40906  97.4672  84.9525 0016021 139.5129 330.4047 15.15552048193627
XW-2D
1 40907U 15049J   19081.46271818  .00000794  00000-0  45026-4 0  9996
2 40907  97.4646  84.6922 0015441 136.8949  17.9878 15.15729281193648
LILACSAT 2
1 40908U 15049K   19081.41617449  .00000533  00000-0  33094-4 0  9999
2 40908  97.4776  83.6297 0016876 142.4567 325.2291 15.13727780193452
XW-2F
1 40910U 15049M   19081.30279198  .00000963  00000-0  51880-4 0  9995
2 40910  97.4622  86.3541 0016193 132.1863 353.1625 15.17095918193618
XW-2B
1 40911U 15049N   19081.41646837  .00000794  00000-0  45119-4 0  9996
2 40911  97.4677  85.2739 0015423 138.0475 328.1480 15.15662340193534
KAITUO 1B
1 40912U 15049P   19081.47317012  .00001323  00000-0  65559-4 0  9992
2 40912  97.4514  89.9767 0016746 116.5747  40.3751 15.19384150193919
TIANWANG 1C (TW-1C)
1 40926U 15051B   19081.47932858  .00010225  00000-0  16081-3 0  9997
2 40926  97.1494 127.8294 0007619 352.4602 114.6053 15.53770449196455
